パロマー彗星

C/2019 O3 ( Palomar )

English version
Home page
Updated on August 15, 2020

---------------------------------------------------------------------

・ プロフィール

発見日 2019年7月26日
発見光度 19.3等
発見者 Q.-Z. Ye (Oschin Schmidt telescope, Palomar)

・ 写真集

・ 軌道要素

Epoch 2021 Mar. 7.0 TT = JDT 2459280.5
T 2021 Mar. 7.99385 TT                                  Rudenko
q   8.8194021            (2000.0)            P               Q
z  -0.0002584      Peri.   60.05075     +0.25489545     -0.43682426
 +/-0.0000017      Node   300.38091     -0.73850334     +0.48797009
e   1.0022786      Incl.   89.81525     +0.62421240     +0.75569158
From 228 observations 2019 May 14-2020 July 27, mean residual 0".4.

・ 星図

・ 光度変化

        m1 = -44.5 + 5 logΔ + 60 log r

---------------------------------------------------------------------

軌道要素はM.P.E.C. 2020-P19に掲載されたものです。
星図はステラナビゲータ Ver.10 (アストロアーツ) で作成したものです。
光度グラフはComet for Windowsで作成したものです。

---------------------------------------------------------------------

Copyright(C) Seiichi Yoshida (comet@aerith.net). All rights reserved.